SCP
0 0 0 0 1 1 1 1 1 1 1 0 0 0 1 0 0 0 0 0 0 0 0 0 0 0 0 0 0 0 0 0 0 0 0 0 0 0 0 0 0 0 0
0 0 0 1 1 1 1 1 1 1 1 0 0 1 0 1 0 0 0 0 0 0 0 0 0 0 0 0 0 0 0 0 0 0 0 0 0 0 0 0 0 0 0
0 0 1 2 1 1 1 1 1 1 1 1 1 1 1 0 0 0 0 0 0 0 0 0 0 0 0 0 0 0 0 0 0 0 0 0 0 0 0 0 0 0 0
1 1 2 2 1 1 1 1 1 1 1 1 0 0 0 0 0 0 0 0 0 0 0 0 0 0 0 0 0 0 0 0 0 0 0 0 0 0 0 0 0 0 0
2 2 3 3 2 2 2 1 1 1 1 0 0 0 0 0 0 0 0 0 0 0 0 0 0 0 0 0 0 0 0 0 0 0 0 0 0 0 0 0 0 0 0
3 3 3 2 2 2 1 1 1 0 0 0 0 0 0 0 0 0 0 0 0 0 0 0 0 0 0 0 0 0 0 0 0 0 0 0 0 0 0 0 0 0 0
3 2 2 2 1 1 1 0 0 0 0 0 0 0 0 0 0 0 0 0 0 0 0 0 0 0 0 0 0 0 0 0 0 0 0 0 0 0 0 0 0 0 0
2 1 1 1 1 0 0 0 0 0 0 0 0 0 0 0 0 0 0 0 0 0 0 0 0 0 -0 0 0 0 0 0 0 0 0 0 0 0 0 0 0 0 0
1 1 1 0 0 0 0 0 0 0 0 0 0 0 0 0 0 0 0 0 0 0 0 -0 0 0 0 0 0 0 0 0 0 0 0 0 0 0 0 0 0 0 0
0 0 0 0 0 0 0 0 0 0 0 0 0 0 0 0 0 0 0 0 0 0 0 0 0 0 -0 0 0 0 0 0 0 0 0 0 0 0 0 0 0 0 0
0 0 0 0 0 0 0 0 0 0 0 0 0 0 0 0 0 0 -0 0 0 0 0 0 0 -0 -0 0 0 0 0 0 0 0 0 0 0 0 0 0 0 0 0
0 0 0 0 0 0 0 0 0 0 0 0 0 0 0 0 0 -0 -0 -0 -0 0 -0 -0 0 0 0 0 0 0 0 0 0 0 0 0 0 0 0 0 0 0 0
0 0 0 0 0 0 0 0 0 0 0 0 0 0 0 0 0 -0 -0 -0 -0 -0 -0 0 0 0 0 0 -0 -0 0 0 0 0 0 0 0 0 0 0 0 0 0
0 0 0 0 0 0 0 0 0 0 0 0 0 0 0 0 0 0 -0 -0 -0 0 0 0 0 0 0 0 0 0 0 0 0 0 0 0 0 0 0 0 0 0 0
0 0 0 0 0 0 0 0 0 0 0 0 0 0 0 0 0 -0 -0 -0 0 0 0 0 0 0 0 0 0 0 0 0 0 0 0 0 0 0 0 0 0 0 0
0 0 0 0 0 0 0 0 0 0 0 0 0 0 0 0 -0 -0 -0 -0 -0 -0 0 0 0 0 0 0 0 0 0 0 0 0 0 0 0 0 0 0 0 0 0
0 0 0 0 0 0 0 0 0 0 -0 0 0 0 0 -0 -0 -0 -0 -0 0 -0 0 -0 0 0 0 0 0 0 0 0 0 0 0 0 0 0 0 0 0 0 0
0 0 0 0 0 0 0 0 0 0 0 0 0 0 -0 -0 -0 -0 -0 -0 0 0 0 -0 -0 -0 -0 -0 0 0 0 0 0 0 0 0 0 0 -0 0 0 0 0
0 0 0 0 0 0 0 0 0 0 0 0 0 0 0 -0 -0 0 0 0 0 -0 -0 -0 -0 0 -0 -0 -0 0 0 0 0 0 0 0 -0 -0 -0 -0 -0 0 0
0 -0 0 0 0 0 0 0 0 0 0 0 0 0 0 0 0 -0 0 -0 -0 -0 -0 -0 -0 -0 -0 0 0 0 0 -0 -0 -0 -0 -0 -0 -0 -0 -0 -0 0 0
0 0 0 0 0 0 0 0 0 0 0 0 0 0 0 0 -0 0 0 0 0 0 -0 -0 -0 0 0 0 0 0 -0 -0 0 0 -0 0 -0 -0 -0 -0 0 0 0
0 0 0 0 0 0 0 0 0 0 0 0 0 0 0 0 0 0 0 0 0 0 0 0 0 0 0 0 0 0 0 -0 0 0 0 0 0 0 0 0 0 0 0
0 0 0 0 0 0 0 0 0 0 0 0 0 0 0 0 0 0 0 0 0 0 0 0 0 0 0 0 0 0 0 0 -0 0 -0 0 0 0 0 0 0 0 0
0 0 0 0 0 0 0 0 0 0 0 0 0 0 0 0 0 0 0 0 0 0 0 0 0 -0 0 0 0 0 0 0 0 0 0 0 0 0 0 0 0 0 0
0 0 0 0 0 0 0 0 0 0 0 0 0 0 0 0 0 0 0 0 0 -0 -0 0 0 -0 -0 -0 -0 -0 -0 -0 0 0 0 0 0 0 0 0 0 0 0
0 0 0 0 0 0 0 0 0 0 0 0 0 0 0 0 0 0 0 0 -0 -0 -0 -0 -0 -0 -0 -0 -0 -0 -0 -0 -0 0 0 0 0 0 0 0 0 0 0
Wind_Speed_500mb
59 62 74 91 89 82 75 69 64 56 45 43 46 42 36 36 36 36 33 34 35 29 29 30 28 27 25 27 32 30 26 22 18 17 15 10 19 19 18 28 36 29 28
54 64 65 77 81 76 63 59 57 48 47 45 43 41 39 41 40 36 33 28 27 28 29 30 29 28 26 26 26 26 25 22 19 17 19 17 21 26 25 25 29 26 27
48 57 62 77 68 60 54 52 51 47 46 47 43 40 41 43 37 27 19 18 23 23 25 27 28 30 30 30 26 25 22 24 23 20 22 24 25 33 33 28 23 26 28
48 49 60 58 53 51 51 50 46 47 49 47 44 45 44 41 29 21 22 18 16 20 24 28 31 35 33 33 29 24 26 28 26 25 23 26 30 31 30 30 30 30 31
46 57 57 54 53 52 50 46 47 50 51 50 49 47 36 27 23 26 20 17 16 18 23 29 34 36 34 31 31 30 32 31 29 33 30 32 36 32 35 36 35 34 34
53 72 64 58 53 52 55 57 58 57 57 55 44 37 35 29 28 23 24 22 21 25 26 28 29 32 30 31 31 29 31 29 33 40 40 40 42 40 34 39 42 40 36
52 49 43 48 55 57 60 65 60 65 60 49 44 34 32 31 25 27 24 24 25 21 20 21 25 28 29 31 32 29 29 21 18 32 38 43 42 41 37 41 42 44 41
45 47 55 57 60 65 67 68 67 60 54 48 39 39 32 28 28 26 23 20 17 15 14 16 21 22 23 27 33 33 30 24 20 22 28 26 33 35 32 34 44 40 36
35 59 64 66 72 80 71 65 62 56 45 43 42 34 30 28 23 20 16 15 15 15 19 23 19 19 24 26 30 33 32 28 27 24 26 23 23 30 36 38 44 47 41
57 67 70 75 66 70 71 60 49 50 46 48 36 32 27 22 19 19 17 18 16 19 24 25 22 21 21 23 23 31 33 34 34 33 31 30 31 30 33 35 40 45 46
72 78 74 72 72 63 57 50 50 52 54 44 37 29 23 19 21 21 19 17 14 20 24 26 24 24 23 20 14 21 26 28 28 29 35 33 33 32 35 35 37 43 43
81 79 74 71 59 51 55 56 53 51 44 38 32 28 24 22 22 24 21 17 19 20 25 23 19 27 28 23 20 19 16 11 19 32 34 34 40 38 37 33 33 35 37
77 72 69 57 52 57 63 54 51 44 42 39 33 28 28 26 26 23 20 20 21 21 21 25 22 30 31 24 21 17 13 12 20 30 31 33 37 37 34 33 30 31 28
67 60 59 57 57 57 51 51 44 42 40 37 33 27 24 27 26 24 22 24 23 25 25 29 28 32 29 24 24 18 16 12 15 27 29 29 29 31 32 27 27 28 25
65 62 61 56 59 56 52 44 37 31 32 33 27 18 16 25 27 24 24 27 24 25 29 30 36 35 32 27 24 20 17 17 13 25 28 32 31 30 32 28 22 28 28
61 63 58 58 57 52 49 45 40 31 28 20 14 13 14 16 23 26 27 27 24 27 33 39 39 35 29 27 25 20 19 19 16 21 26 32 31 29 29 24 24 23 23
62 61 63 64 60 57 49 47 43 38 33 28 21 19 12 22 22 25 29 25 25 33 36 34 33 29 21 18 19 19 20 20 19 23 28 33 31 29 26 25 23 25 25
57 59 58 56 54 51 46 43 42 42 38 35 29 26 19 20 21 26 32 35 35 35 34 36 32 25 17 17 15 19 19 20 23 26 28 35 33 25 30 28 26 24 24
53 55 49 48 43 39 39 43 44 43 45 41 40 34 28 25 32 36 32 33 33 31 32 31 30 24 17 13 13 14 18 18 20 24 25 26 30 30 24 23 23 22 23
42 40 39 38 38 36 35 46 46 49 46 41 41 38 38 39 41 32 26 27 25 31 36 32 30 22 20 19 18 18 19 20 19 19 19 21 21 23 21 21 20 18 19
45 40 38 40 37 38 41 44 49 51 46 42 40 36 42 46 43 29 21 28 29 31 33 32 24 23 21 17 15 15 14 14 13 12 12 13 16 19 18 17 18 19 20
45 38 39 39 38 38 42 45 49 50 43 46 45 46 45 44 32 24 26 28 30 32 34 30 25 22 17 15 15 18 16 11 9 8 7 8 10 11 14 19 22 26 32
41 37 36 38 38 38 40 41 42 45 50 49 52 51 46 40 26 27 25 25 28 30 32 29 24 19 14 12 15 13 12 9 7 7 9 12 14 16 20 24 27 33 40
40 38 38 39 41 42 40 42 41 50 53 54 52 51 43 32 21 26 23 25 26 25 25 24 20 15 12 12 9 10 11 10 10 11 15 15 20 21 23 26 29 27 22
47 44 42 40 48 47 50 50 51 55 56 53 50 50 45 38 30 33 33 27 25 25 24 19 14 11 9 9 10 8 9 8 6 3 4 3 2 8 9 12 13 13 13
47 44 50 49 49 54 54 61 62 61 60 54 53 49 41 36 32 30 27 27 27 32 33 30 27 22 18 17 18 14 10 8 7 3 4 5 5 6 9 10 11 7 3
Wind_Direction_500mb
248 249 244 240 241 248 251 248 243 239 230 222 224 227 230 214 219 207 219 211 214 220 225 232 239 237 238 237 241 244 244 249 255 257 237 225 194 187 156 168 180 189 188
250 244 244 241 243 243 240 238 228 227 217 218 221 223 214 210 207 204 203 204 214 225 232 233 229 230 234 235 238 239 239 240 241 235 218 209 193 196 201 176 169 181 183
244 238 238 235 233 230 221 212 215 210 213 209 214 202 188 189 190 184 207 237 228 231 230 228 231 235 237 231 227 232 235 222 215 226 213 195 190 180 169 170 171 179 176
233 230 221 218 211 203 201 206 211 206 204 197 182 178 184 172 175 192 209 214 226 229 231 236 239 241 237 234 216 233 220 211 205 214 212 190 187 190 200 191 179 175 170
227 217 203 196 195 200 202 196 193 192 182 172 173 169 166 167 183 194 205 226 240 244 245 242 238 233 228 229 224 228 211 210 212 203 196 185 178 177 185 181 173 168 166
204 192 192 189 200 196 181 186 174 170 166 163 162 164 166 180 196 205 224 242 259 266 257 244 229 225 220 219 218 212 209 213 206 197 190 185 182 186 187 184 177 171 161
194 198 195 195 187 183 179 169 170 165 161 159 164 173 185 184 200 216 237 253 262 252 242 216 209 218 221 204 202 205 200 215 241 209 196 197 190 187 190 178 179 171 171
194 209 211 187 172 174 172 166 161 161 162 162 173 180 178 194 211 222 241 249 234 227 203 186 180 185 192 196 196 190 186 194 202 209 214 217 212 203 196 194 180 168 171
199 210 201 179 165 160 160 161 160 160 171 177 177 180 195 205 217 229 224 209 197 181 169 167 172 177 174 174 186 188 186 185 182 198 215 214 214 212 203 191 184 175 179
208 203 181 159 160 156 156 159 167 167 171 171 177 187 200 209 210 198 187 184 168 162 166 167 163 165 167 171 186 195 190 184 188 192 192 195 204 208 202 200 193 190 182
189 183 158 155 153 154 156 161 172 172 170 174 186 189 199 201 194 187 166 175 176 175 174 173 170 171 168 154 169 188 190 192 202 209 188 181 180 183 181 186 197 203 201
169 149 149 152 156 161 164 167 165 171 176 179 188 189 188 186 181 174 168 184 192 197 192 192 187 174 161 153 156 170 184 192 184 168 173 176 176 178 182 187 192 202 212
143 147 155 159 157 166 167 167 170 178 182 186 188 190 186 174 178 182 184 189 182 179 183 190 187 162 167 162 169 174 183 187 189 181 181 178 176 176 179 181 193 204 212
147 151 156 158 161 164 171 172 177 183 188 189 186 188 186 176 177 179 181 177 174 170 172 173 173 165 168 174 172 166 186 180 179 183 187 183 177 177 178 187 191 191 197
150 157 160 163 167 163 170 174 181 187 189 188 195 199 188 178 177 179 180 170 173 174 170 162 164 168 170 177 175 175 182 182 178 188 189 183 183 187 189 188 194 190 191
157 160 159 161 165 169 179 181 184 186 180 183 188 171 151 168 172 170 171 176 176 172 168 162 166 165 169 169 175 182 184 187 184 185 185 185 184 189 193 186 195 201 197
156 159 165 171 175 177 182 184 183 183 182 182 171 166 164 164 161 169 170 172 167 166 170 161 153 155 161 176 186 198 198 194 193 189 194 195 197 199 207 205 212 205 204
158 162 170 175 177 180 184 188 187 181 177 163 161 142 152 154 143 153 152 156 163 164 165 163 156 157 159 161 177 191 194 202 196 191 195 194 199 203 207 211 210 206 209
161 168 172 174 177 184 190 190 183 172 160 154 146 147 149 139 134 136 139 148 154 159 156 154 150 151 157 172 176 179 191 186 180 181 186 194 204 211 216 210 206 205 207
157 162 168 169 171 171 172 170 171 163 156 154 152 156 152 142 135 137 142 151 149 153 150 147 150 146 134 128 134 138 137 144 162 176 187 193 190 193 186 188 198 216 230
154 152 151 155 161 163 163 165 163 161 155 158 155 151 144 139 127 109 127 128 140 145 154 161 157 153 146 135 136 136 137 134 135 133 136 149 169 189 206 226 235 242 256
155 156 156 159 158 158 161 163 163 163 157 155 144 147 143 137 133 109 129 136 141 150 162 169 171 171 166 161 160 152 143 147 156 169 182 203 225 246 246 244 250 264 276
166 154 156 161 155 151 154 160 163 159 154 152 153 153 154 156 141 136 135 135 143 145 151 154 160 157 154 157 158 154 159 168 187 230 244 256 252 235 239 250 257 265 274
153 155 151 150 153 151 153 156 155 152 153 153 158 157 162 166 153 144 143 134 145 147 150 156 163 164 152 160 171 168 178 213 238 250 268 275 262 258 258 258 261 264 271
153 150 152 147 153 152 150 150 150 153 154 155 158 164 168 174 169 160 164 165 162 168 167 164 163 158 164 170 168 187 219 241 225 258 332 311 289 264 266 270 256 244 253
163 163 163 158 160 157 157 158 162 163 158 159 164 167 170 171 170 171 172 175 173 167 166 168 158 148 134 130 122 121 121 128 124 61 317 308 287 240 211 209 201 201 219
Wind_Speed_850mb
59 62 74 91 89 82 75 69 64 56 45 43 46 42 36 36 36 36 33 34 35 29 29 30 28 27 25 27 32 30 26 22 18 17 15 10 19 19 18 28 36 29 28
54 64 65 77 81 76 63 59 57 48 47 45 43 41 39 41 40 36 33 28 27 28 29 30 29 28 26 26 26 26 25 22 19 17 19 17 21 26 25 25 29 26 27
48 57 62 77 68 60 54 52 51 47 46 47 43 40 41 43 37 27 19 18 23 23 25 27 28 30 30 30 26 25 22 24 23 20 22 24 25 33 33 28 23 26 28
48 49 60 58 53 51 51 50 46 47 49 47 44 45 44 41 29 21 22 18 16 20 24 28 31 35 33 33 29 24 26 28 26 25 23 26 30 31 30 30 30 30 31
46 57 57 54 53 52 50 46 47 50 51 50 49 47 36 27 23 26 20 17 16 18 23 29 34 36 34 31 31 30 32 31 29 33 30 32 36 32 35 36 35 34 34
53 72 64 58 53 52 55 57 58 57 57 55 44 37 35 29 28 23 24 22 21 25 26 28 29 32 30 31 31 29 31 29 33 40 40 40 42 40 34 39 42 40 36
52 49 43 48 55 57 60 65 60 65 60 49 44 34 32 31 25 27 24 24 25 21 20 21 25 28 29 31 32 29 29 21 18 32 38 43 42 41 37 41 42 44 41
45 47 55 57 60 65 67 68 67 60 54 48 39 39 32 28 28 26 23 20 17 15 14 16 21 22 23 27 33 33 30 24 20 22 28 26 33 35 32 34 44 40 36
35 59 64 66 72 80 71 65 62 56 45 43 42 34 30 28 23 20 16 15 15 15 19 23 19 19 24 26 30 33 32 28 27 24 26 23 23 30 36 38 44 47 41
57 67 70 75 66 70 71 60 49 50 46 48 36 32 27 22 19 19 17 18 16 19 24 25 22 21 21 23 23 31 33 34 34 33 31 30 31 30 33 35 40 45 46
72 78 74 72 72 63 57 50 50 52 54 44 37 29 23 19 21 21 19 17 14 20 24 26 24 24 23 20 14 21 26 28 28 29 35 33 33 32 35 35 37 43 43
81 79 74 71 59 51 55 56 53 51 44 38 32 28 24 22 22 24 21 17 19 20 25 23 19 27 28 23 20 19 16 11 19 32 34 34 40 38 37 33 33 35 37
77 72 69 57 52 57 63 54 51 44 42 39 33 28 28 26 26 23 20 20 21 21 21 25 22 30 31 24 21 17 13 12 20 30 31 33 37 37 34 33 30 31 28
67 60 59 57 57 57 51 51 44 42 40 37 33 27 24 27 26 24 22 24 23 25 25 29 28 32 29 24 24 18 16 12 15 27 29 29 29 31 32 27 27 28 25
65 62 61 56 59 56 52 44 37 31 32 33 27 18 16 25 27 24 24 27 24 25 29 30 36 35 32 27 24 20 17 17 13 25 28 32 31 30 32 28 22 28 28
61 63 58 58 57 52 49 45 40 31 28 20 14 13 14 16 23 26 27 27 24 27 33 39 39 35 29 27 25 20 19 19 16 21 26 32 31 29 29 24 24 23 23
62 61 63 64 60 57 49 47 43 38 33 28 21 19 12 22 22 25 29 25 25 33 36 34 33 29 21 18 19 19 20 20 19 23 28 33 31 29 26 25 23 25 25
57 59 58 56 54 51 46 43 42 42 38 35 29 26 19 20 21 26 32 35 35 35 34 36 32 25 17 17 15 19 19 20 23 26 28 35 33 25 30 28 26 24 24
53 55 49 48 43 39 39 43 44 43 45 41 40 34 28 25 32 36 32 33 33 31 32 31 30 24 17 13 13 14 18 18 20 24 25 26 30 30 24 23 23 22 23
42 40 39 38 38 36 35 46 46 49 46 41 41 38 38 39 41 32 26 27 25 31 36 32 30 22 20 19 18 18 19 20 19 19 19 21 21 23 21 21 20 18 19
45 40 38 40 37 38 41 44 49 51 46 42 40 36 42 46 43 29 21 28 29 31 33 32 24 23 21 17 15 15 14 14 13 12 12 13 16 19 18 17 18 19 20
45 38 39 39 38 38 42 45 49 50 43 46 45 46 45 44 32 24 26 28 30 32 34 30 25 22 17 15 15 18 16 11 9 8 7 8 10 11 14 19 22 26 32
41 37 36 38 38 38 40 41 42 45 50 49 52 51 46 40 26 27 25 25 28 30 32 29 24 19 14 12 15 13 12 9 7 7 9 12 14 16 20 24 27 33 40
40 38 38 39 41 42 40 42 41 50 53 54 52 51 43 32 21 26 23 25 26 25 25 24 20 15 12 12 9 10 11 10 10 11 15 15 20 21 23 26 29 27 22
47 44 42 40 48 47 50 50 51 55 56 53 50 50 45 38 30 33 33 27 25 25 24 19 14 11 9 9 10 8 9 8 6 3 4 3 2 8 9 12 13 13 13
47 44 50 49 49 54 54 61 62 61 60 54 53 49 41 36 32 30 27 27 27 32 33 30 27 22 18 17 18 14 10 8 7 3 4 5 5 6 9 10 11 7 3
Wind_Direction_850mb
248 249 244 240 241 248 251 248 243 239 230 222 224 227 230 214 219 207 219 211 214 220 225 232 239 237 238 237 241 244 244 249 255 257 237 225 194 187 156 168 180 189 188
250 244 244 241 243 243 240 238 228 227 217 218 221 223 214 210 207 204 203 204 214 225 232 233 229 230 234 235 238 239 239 240 241 235 218 209 193 196 201 176 169 181 183
244 238 238 235 233 230 221 212 215 210 213 209 214 202 188 189 190 184 207 237 228 231 230 228 231 235 237 231 227 232 235 222 215 226 213 195 190 180 169 170 171 179 176
233 230 221 218 211 203 201 206 211 206 204 197 182 178 184 172 175 192 209 214 226 229 231 236 239 241 237 234 216 233 220 211 205 214 212 190 187 190 200 191 179 175 170
227 217 203 196 195 200 202 196 193 192 182 172 173 169 166 167 183 194 205 226 240 244 245 242 238 233 228 229 224 228 211 210 212 203 196 185 178 177 185 181 173 168 166
204 192 192 189 200 196 181 186 174 170 166 163 162 164 166 180 196 205 224 242 259 266 257 244 229 225 220 219 218 212 209 213 206 197 190 185 182 186 187 184 177 171 161
194 198 195 195 187 183 179 169 170 165 161 159 164 173 185 184 200 216 237 253 262 252 242 216 209 218 221 204 202 205 200 215 241 209 196 197 190 187 190 178 179 171 171
194 209 211 187 172 174 172 166 161 161 162 162 173 180 178 194 211 222 241 249 234 227 203 186 180 185 192 196 196 190 186 194 202 209 214 217 212 203 196 194 180 168 171
199 210 201 179 165 160 160 161 160 160 171 177 177 180 195 205 217 229 224 209 197 181 169 167 172 177 174 174 186 188 186 185 182 198 215 214 214 212 203 191 184 175 179
208 203 181 159 160 156 156 159 167 167 171 171 177 187 200 209 210 198 187 184 168 162 166 167 163 165 167 171 186 195 190 184 188 192 192 195 204 208 202 200 193 190 182
189 183 158 155 153 154 156 161 172 172 170 174 186 189 199 201 194 187 166 175 176 175 174 173 170 171 168 154 169 188 190 192 202 209 188 181 180 183 181 186 197 203 201
169 149 149 152 156 161 164 167 165 171 176 179 188 189 188 186 181 174 168 184 192 197 192 192 187 174 161 153 156 170 184 192 184 168 173 176 176 178 182 187 192 202 212
143 147 155 159 157 166 167 167 170 178 182 186 188 190 186 174 178 182 184 189 182 179 183 190 187 162 167 162 169 174 183 187 189 181 181 178 176 176 179 181 193 204 212
147 151 156 158 161 164 171 172 177 183 188 189 186 188 186 176 177 179 181 177 174 170 172 173 173 165 168 174 172 166 186 180 179 183 187 183 177 177 178 187 191 191 197
150 157 160 163 167 163 170 174 181 187 189 188 195 199 188 178 177 179 180 170 173 174 170 162 164 168 170 177 175 175 182 182 178 188 189 183 183 187 189 188 194 190 191
157 160 159 161 165 169 179 181 184 186 180 183 188 171 151 168 172 170 171 176 176 172 168 162 166 165 169 169 175 182 184 187 184 185 185 185 184 189 193 186 195 201 197
156 159 165 171 175 177 182 184 183 183 182 182 171 166 164 164 161 169 170 172 167 166 170 161 153 155 161 176 186 198 198 194 193 189 194 195 197 199 207 205 212 205 204
158 162 170 175 177 180 184 188 187 181 177 163 161 142 152 154 143 153 152 156 163 164 165 163 156 157 159 161 177 191 194 202 196 191 195 194 199 203 207 211 210 206 209
161 168 172 174 177 184 190 190 183 172 160 154 146 147 149 139 134 136 139 148 154 159 156 154 150 151 157 172 176 179 191 186 180 181 186 194 204 211 216 210 206 205 207
157 162 168 169 171 171 172 170 171 163 156 154 152 156 152 142 135 137 142 151 149 153 150 147 150 146 134 128 134 138 137 144 162 176 187 193 190 193 186 188 198 216 230
154 152 151 155 161 163 163 165 163 161 155 158 155 151 144 139 127 109 127 128 140 145 154 161 157 153 146 135 136 136 137 134 135 133 136 149 169 189 206 226 235 242 256
155 156 156 159 158 158 161 163 163 163 157 155 144 147 143 137 133 109 129 136 141 150 162 169 171 171 166 161 160 152 143 147 156 169 182 203 225 246 246 244 250 264 276
166 154 156 161 155 151 154 160 163 159 154 152 153 153 154 156 141 136 135 135 143 145 151 154 160 157 154 157 158 154 159 168 187 230 244 256 252 235 239 250 257 265 274
153 155 151 150 153 151 153 156 155 152 153 153 158 157 162 166 153 144 143 134 145 147 150 156 163 164 152 160 171 168 178 213 238 250 268 275 262 258 258 258 261 264 271
153 150 152 147 153 152 150 150 150 153 154 155 158 164 168 174 169 160 164 165 162 168 167 164 163 158 164 170 168 187 219 241 225 258 332 311 289 264 266 270 256 244 253
163 163 163 158 160 157 157 158 162 163 158 159 164 167 170 171 170 171 172 175 173 167 166 168 158 148 134 130 122 121 121 128 124 61 317 308 287 240 211 209 201 201 219